GEFSSE_con_maxscp_264.txt.gz
SCP
1 1 1 1 1 1 1 1 1 1 1 1 1 1 1 1 2 2 2 2 2 1 1 1 1 1 1 1 1 1 1 1 0 1 1 1 1 1 1 0 0 0 1
1 1 1 1 1 1 1 1 1 1 1 1 1 1 1 2 2 2 2 2 1 1 1 1 1 1 1 1 1 1 1 1 0 0 1 1 1 1 0 0 0 0 1
1 1 1 1 1 1 1 1 1 1 1 1 1 1 1 2 2 2 2 2 1 1 1 1 1 1 1 1 1 1 1 1 0 0 0 0 1 0 0 0 0 0 1
1 1 2 2 2 2 2 1 1 1 1 1 1 1 1 2 2 2 2 2 1 1 1 1 1 1 1 1 1 1 1 1 0 0 0 0 0 0 0 0 0 0 0
1 1 2 2 2 2 2 1 1 1 1 1 1 1 1 2 3 3 2 2 1 1 1 1 1 1 1 1 1 1 1 0 0 0 0 0 0 0 0 0 0 0 0
1 1 2 2 3 2 2 2 1 1 1 1 1 1 1 2 3 3 2 1 1 1 1 1 1 1 1 1 1 1 1 1 0 0 0 0 0 0 0 0 0 0 0
1 1 2 2 3 3 3 2 2 2 1 1 1 1 1 2 3 3 2 1 1 1 1 1 1 1 1 1 1 1 1 1 1 0 0 0 0 0 0 1 1 1 1
0 1 1 2 3 3 3 2 2 2 2 1 1 1 1 2 2 2 2 1 1 1 1 1 1 1 1 1 1 1 1 1 1 0 0 0 0 0 1 1 1 1 1
0 0 1 1 2 2 2 2 2 2 2 1 1 1 1 1 2 1 1 1 1 1 1 1 1 1 1 1 1 1 1 0 0 0 0 0 0 0 1 1 1 1 1
0 0 0 0 1 1 1 2 2 2 2 1 1 1 1 1 1 1 1 1 1 1 1 1 1 1 1 1 1 0 0 0 0 0 0 0 0 0 1 1 1 1 1
0 0 0 0 0 0 1 1 1 1 1 1 1 1 1 1 1 1 1 1 1 1 1 1 1 1 1 1 1 0 0 0 0 0 0 0 0 0 0 1 1 1 1
0 0 0 0 0 0 0 1 1 1 1 1 1 1 0 0 0 0 1 1 1 1 1 1 1 1 1 1 1 1 1 1 1 1 0 0 0 0 0 1 1 1 1
0 0 0 0 0 0 0 0 0 0 1 1 1 0 0 0 0 0 0 1 1 1 1 1 1 1 1 1 1 1 1 1 1 1 0 0 0 0 0 1 1 1 1
0 0 0 0 0 0 0 0 0 0 1 1 1 1 0 0 0 0 0 0 1 1 1 1 1 1 1 1 1 1 0 0 0 0 0 0 0 0 1 1 1 1 1
1 1 0 0 0 0 0 0 0 0 1 1 0 0 0 0 0 0 0 1 1 1 1 1 1 1 1 1 1 1 1 0 0 0 0 0 1 1 1 1 1 1 1
1 1 0 0 0 0 0 0 1 1 1 1 1 0 1 1 1 1 1 1 0 0 1 1 1 1 1 1 1 1 1 1 0 0 0 0 1 1 1 1 1 1 1
1 0 0 0 0 1 1 1 1 1 1 1 1 1 1 1 1 1 1 1 1 1 1 1 1 1 1 1 1 1 1 1 1 1 1 0 0 1 1 1 1 1 1
1 0 0 0 1 1 1 1 1 1 1 2 1 1 1 1 1 1 1 1 1 1 1 1 1 1 1 1 1 1 0 1 1 1 1 0 0 0 1 1 1 1 1
0 0 0 1 1 1 1 1 1 2 2 2 2 2 2 2 2 2 1 1 1 1 1 1 1 1 1 1 0 0 0 0 0 1 0 0 0 0 0 0 1 1 1
0 1 1 1 2 2 2 2 2 3 3 4 4 4 4 4 4 4 2 1 1 2 2 1 1 1 1 0 0 0 0 0 0 0 0 0 0 0 0 0 0 1 1
1 1 1 1 2 3 3 3 3 4 5 6 6 7 8 7 7 6 3 2 2 2 2 1 1 1 0 0 0 0 0 0 0 0 0 0 0 0 0 0 0 0 0
1 1 1 2 2 3 3 3 4 5 7 8 8 10 10 9 7 5 3 2 2 2 2 1 1 0 0 0 0 0 0 0 0 0 0 0 0 0 0 0 0 0 0
1 1 1 2 2 2 2 2 3 5 6 8 8 8 7 7 5 3 2 2 2 2 2 1 1 0 0 0 0 0 0 0 0 0 0 0 0 0 0 0 0 0 1
2 2 2 2 2 2 2 2 2 3 5 5 5 4 3 3 2 2 1 1 2 2 1 1 1 0 0 0 0 0 0 0 0 0 0 0 0 0 0 0 0 0 0
3 3 3 3 3 2 2 2 2 3 3 3 3 2 2 2 2 1 1 1 1 1 1 1 0 0 0 0 1 1 0 0 0 0 0 0 0 0 0 1 0 0 1
3 3 3 3 2 2 2 2 2 3 3 3 2 2 2 1 1 1 1 1 1 1 1 0 0 0 0 1 1 1 1 0 0 0 0 0 0 0 0 0 1 1 1

GEFSSE_con_maxscp_270.txt.gz
SCP
1 1 1 1 1 1 1 1 1 1 1 1 2 2 2 3 3 3 3 3 2 2 2 2 2 2 2 2 1 1 1 1 1 1 1 1 1 1 1 1 1 1 1
1 1 1 1 2 1 1 1 1 1 1 1 2 2 2 2 3 3 3 2 2 2 2 2 2 2 2 1 1 1 1 1 1 1 1 0 0 1 0 0 1 1 1
1 1 1 2 2 1 1 1 1 1 1 1 2 2 2 2 2 2 2 2 2 2 2 2 2 2 2 1 1 1 1 1 1 1 1 0 0 0 0 0 1 1 1
1 1 1 1 2 1 1 1 1 1 1 1 1 1 1 1 1 1 2 2 2 2 2 2 2 2 2 2 1 1 1 1 1 1 0 0 0 0 0 0 1 1 1
1 1 1 1 1 1 1 1 1 1 1 1 1 1 1 1 1 1 1 2 2 2 2 2 2 2 2 2 2 1 1 1 1 1 0 0 1 1 1 1 1 1 1
1 1 1 1 1 1 1 1 1 1 1 1 1 1 1 1 1 1 1 1 2 2 2 2 3 3 2 2 2 2 1 1 1 0 0 1 1 1 1 1 1 1 1
1 1 1 1 1 1 1 1 1 1 1 1 1 1 1 1 1 1 1 1 2 2 2 3 3 3 2 2 2 2 1 1 1 0 1 1 1 1 1 1 1 1 1
1 1 1 1 1 1 1 1 1 1 1 1 1 1 1 1 1 1 1 1 1 2 2 2 3 2 2 2 1 1 1 1 1 0 1 1 1 1 1 1 1 1 1
0 1 1 1 1 1 1 1 1 1 1 1 1 1 1 1 1 1 1 1 1 1 2 2 2 2 2 2 1 1 1 1 1 0 0 1 1 1 1 1 1 1 1
1 1 1 1 1 1 1 1 1 1 1 1 1 1 1 1 2 2 2 1 1 1 2 2 2 2 2 1 1 1 1 1 1 0 0 1 1 1 1 1 1 1 1
1 1 1 1 1 1 1 1 1 1 2 1 1 1 1 1 2 2 2 2 2 2 2 2 2 2 2 2 1 1 1 1 1 0 0 1 1 1 1 1 1 1 1
1 1 1 1 2 1 1 1 2 2 2 2 2 2 2 2 2 2 2 2 2 2 2 3 3 2 2 2 1 1 1 1 1 0 1 1 1 1 1 1 1 1 1
2 2 2 2 2 2 2 2 2 3 3 2 2 2 2 2 3 3 3 3 3 3 3 3 3 2 2 2 1 1 1 1 1 1 1 1 1 1 1 1 1 1 1
2 2 2 3 3 3 2 2 2 3 3 3 2 2 2 2 3 3 3 3 3 3 3 3 3 3 2 2 1 1 1 1 1 1 1 1 1 1 1 1 2 1 1
3 3 3 4 4 4 4 4 3 3 4 3 3 3 3 3 3 3 3 3 3 3 3 4 3 3 3 2 2 1 1 1 1 1 1 1 1 1 1 2 2 2 2
2 3 4 4 5 5 5 5 4 4 4 4 3 3 3 4 3 3 3 2 2 3 3 4 4 4 3 3 2 1 1 1 1 1 1 1 1 1 1 2 2 2 2
2 3 4 4 5 6 6 6 5 4 4 4 4 4 4 4 4 4 4 3 3 3 3 4 4 4 3 3 2 2 1 1 1 1 1 1 1 1 1 2 2 2 2
2 3 4 4 5 6 7 6 5 4 4 4 4 4 4 4 5 5 4 4 4 3 3 3 4 4 4 3 3 2 2 2 2 2 1 1 1 1 2 2 2 2 2
2 3 4 4 5 6 7 6 6 4 3 3 3 3 3 4 4 4 5 5 5 4 3 3 3 4 4 3 3 3 3 2 2 2 2 1 1 1 2 2 2 3 3
2 3 4 5 6 6 7 6 5 4 3 2 2 3 3 3 3 4 5 6 5 3 3 2 3 3 3 3 3 3 3 3 3 3 2 2 2 2 2 2 2 2 2
3 4 5 6 7 8 8 7 6 4 3 3 3 4 4 3 3 4 4 4 4 3 3 2 2 2 3 3 3 3 3 3 3 2 2 2 2 2 2 2 2 2 2
3 4 6 7 8 9 9 8 7 6 5 4 4 4 4 3 3 3 3 2 2 2 2 2 2 2 2 2 2 3 3 2 2 1 1 1 1 1 1 1 1 1 1
4 5 6 8 9 10 10 9 8 7 6 5 4 4 4 3 2 2 2 1 1 2 2 1 1 1 1 1 1 1 1 1 1 1 1 1 1 1 1 1 1 1 1
3 4 6 8 11 12 11 10 8 7 6 5 5 5 4 3 2 2 1 1 1 1 1 1 1 1 1 1 1 1 1 1 1 1 1 1 1 1 1 1 1 1 1
3 4 6 9 11 13 12 11 9 7 7 6 6 6 5 3 2 2 1 1 1 1 1 1 1 1 1 1 1 1 1 1 1 1 1 1 1 1 1 1 1 1 1
3 4 5 8 11 13 12 11 9 8 7 7 7 6 5 3 2 2 1 1 1 1 1 1 2 1 1 1 1 1 1 1 1 1 1 1 1 1 1 1 1 1 1

GEFSSE_con_maxscp_276.txt.gz
SCP
1 1 1 1 1 1 1 1 1 1 1 1 1 1 1 1 1 1 1 1 1 1 1 1 1 1 1 1 1 1 1 1 1 1 1 1 1 1 0 1 1 1 1
1 1 1 1 1 1 1 1 1 1 1 1 1 1 1 1 1 1 1 1 1 1 1 1 1 1 1 1 1 1 1 1 1 1 1 1 1 0 0 0 1 1 1
1 1 1 1 1 1 1 1 1 1 1 1 1 1 1 1 1 1 1 1 1 1 1 1 1 1 1 1 1 1 1 1 1 1 1 0 0 0 0 0 0 1 1
1 1 1 1 1 1 1 1 1 1 1 1 1 1 1 1 1 1 1 1 1 1 1 1 1 1 1 1 1 1 1 1 1 0 0 0 0 0 0 0 0 0 0
1 1 1 1 1 1 1 1 1 1 1 1 1 1 1 1 1 1 1 1 1 1 1 1 1 1 1 1 1 1 1 0 0 0 0 0 0 0 0 0 0 0 0
1 1 1 1 1 1 1 1 1 1 1 1 1 1 1 1 1 1 1 1 1 1 1 1 1 1 1 1 1 1 1 0 0 1 0 1 1 1 1 1 1 0 0
1 1 1 1 1 1 1 1 1 1 1 1 1 1 1 1 1 2 2 1 1 1 1 1 1 1 1 1 1 1 1 1 1 1 1 1 1 1 1 1 1 1 1
1 1 1 2 2 1 1 1 1 1 1 1 1 1 1 1 1 2 2 1 1 1 1 1 1 1 1 1 2 1 1 1 1 1 1 1 1 1 1 1 1 1 1
1 1 1 2 2 2 2 1 1 1 1 1 1 1 2 2 2 2 2 2 2 2 2 1 1 2 2 2 2 1 1 1 1 1 1 1 1 1 1 1 1 1 1
1 1 1 2 2 2 2 2 1 1 1 1 2 2 2 3 3 3 2 2 2 2 2 2 2 2 2 2 2 2 1 1 1 0 1 1 2 2 1 1 1 1 1
1 1 1 1 2 2 2 2 2 2 2 2 2 2 3 3 2 2 2 2 3 3 4 3 2 2 2 2 2 2 2 1 1 0 1 2 2 2 2 1 1 1 1
1 1 1 1 1 1 2 3 3 3 3 3 2 2 2 2 2 2 2 3 4 4 4 4 3 2 2 2 2 2 1 1 1 1 1 2 2 2 2 2 1 1 1
1 1 1 1 1 1 1 3 3 4 5 4 4 3 3 2 2 2 3 4 4 4 3 3 2 2 1 2 2 1 1 1 1 1 1 1 1 2 2 2 1 1 1
1 1 1 1 1 2 2 2 3 4 5 6 6 6 5 4 3 3 3 4 4 3 3 3 2 2 2 1 1 1 1 1 1 1 1 1 1 2 2 2 2 1 1
2 2 2 2 2 2 3 4 3 3 4 6 8 9 8 6 4 4 4 4 4 3 3 3 3 2 2 1 2 2 2 2 1 1 1 1 1 1 2 2 1 1 1
3 3 3 3 3 4 5 6 5 4 3 4 6 9 9 7 5 4 4 4 4 4 4 4 3 2 2 1 2 2 3 2 2 1 1 1 1 2 1 1 1 1 1
3 3 3 3 4 6 7 8 6 5 4 3 4 6 8 7 5 4 4 4 4 4 4 4 3 2 2 1 2 2 3 3 3 2 2 1 2 2 1 1 1 1 1
4 5 6 7 8 9 10 9 7 5 4 4 4 4 6 6 5 4 3 3 3 3 4 4 4 2 2 2 2 2 3 4 3 2 2 2 2 2 2 1 1 1 1
7 9 12 14 14 12 11 9 7 5 5 4 3 4 5 5 4 3 3 2 3 2 3 3 3 3 2 2 2 1 2 3 3 3 3 3 3 3 2 2 1 1 1
9 11 14 14 13 11 9 8 6 5 5 4 4 5 6 5 4 3 2 2 2 2 2 2 2 2 2 2 1 1 2 2 2 3 3 3 3 4 3 3 2 2 1
7 9 11 10 10 10 8 7 6 5 5 4 4 6 6 5 4 3 3 3 3 2 2 2 2 2 1 1 1 1 1 2 2 2 2 3 3 3 3 3 2 2 2
5 7 9 9 10 11 10 8 7 6 5 5 5 6 6 6 5 4 3 3 3 2 2 2 2 1 1 1 1 1 1 1 1 2 2 2 3 3 3 3 3 2 2
5 6 8 10 12 12 11 9 8 7 6 6 5 6 6 6 5 4 3 3 3 2 2 2 2 1 1 1 1 1 1 1 1 2 2 2 3 3 3 3 3 3 3
4 5 7 10 13 14 12 10 9 8 7 6 6 6 6 5 4 4 3 3 3 2 2 2 2 2 1 1 1 2 2 2 2 2 2 2 2 3 3 3 3 4 4
5 5 7 10 13 13 12 10 8 7 7 7 7 6 5 4 3 3 3 3 3 2 1 2 2 2 2 2 2 2 2 2 2 2 2 2 2 3 4 4 4 5 4
6 6 7 10 11 11 11 9 8 7 7 7 7 7 5 3 3 3 3 2 2 2 1 1 2 2 3 3 2 2 2 2 2 2 2 2 2 2 3 4 5 5 5

GEFSSE_con_maxscp_282.txt.gz
SCP
1 1 1 1 1 1 1 2 2 2 2 2 1 1 1 1 1 1 1 1 1 1 1 1 1 1 1 1 1 1 1 1 1 1 0 0 1 1 0 0 0 0 0
1 1 1 1 1 1 1 2 2 2 2 2 2 1 1 1 1 1 1 1 1 1 1 1 1 1 1 1 1 1 1 1 1 1 0 0 0 0 0 0 0 0 0
1 1 1 1 1 1 1 1 2 2 2 2 2 1 1 1 1 1 1 1 1 1 1 1 1 1 1 1 1 1 1 1 1 1 0 0 0 0 0 0 0 0 0
1 1 1 1 1 1 1 1 1 1 2 2 1 1 1 1 1 1 1 1 1 1 1 1 1 1 1 1 1 1 1 1 1 0 0 0 0 0 0 0 0 0 0
1 1 1 2 2 1 1 1 1 1 1 1 1 1 1 1 1 1 1 1 1 1 1 1 1 1 1 1 1 1 1 1 1 0 0 0 0 0 0 0 0 0 1
1 1 2 2 2 2 1 1 1 1 1 1 1 1 1 1 1 1 1 1 1 1 1 1 1 1 1 1 1 1 1 1 1 0 0 0 0 0 0 0 0 0 1
1 1 1 2 2 2 2 1 1 1 1 1 1 1 1 1 1 1 1 1 1 1 1 1 1 1 1 1 1 1 1 1 1 0 0 0 0 0 0 0 0 0 0
0 1 1 2 2 2 2 2 2 1 1 1 1 1 1 2 2 2 2 2 1 2 1 1 1 1 1 1 1 1 1 1 1 0 0 0 0 0 1 0 0 0 1
0 1 1 1 1 2 2 2 2 2 2 2 2 2 2 2 2 2 2 2 1 1 1 1 1 1 1 1 1 1 1 1 0 0 0 0 0 1 1 1 1 1 1
1 1 1 1 1 1 1 2 2 2 2 2 2 2 2 2 2 2 2 2 1 1 1 1 1 1 1 1 1 1 1 1 0 0 0 0 0 1 1 1 1 1 1
1 1 1 1 1 1 1 2 2 2 2 2 2 2 2 1 2 2 2 2 1 1 1 1 1 1 1 1 1 1 1 1 0 0 0 0 1 1 1 1 1 1 1
1 1 1 1 1 1 1 1 2 2 2 2 1 1 1 1 1 1 2 2 2 1 1 1 1 1 1 1 1 1 1 1 0 0 0 0 1 1 1 1 1 1 1
0 0 1 1 1 1 2 2 2 2 2 1 1 1 1 1 1 1 1 1 1 1 1 1 1 1 1 1 1 1 1 0 0 0 0 1 1 1 1 1 1 1 1
0 0 1 1 1 2 2 2 2 2 2 1 1 1 1 2 1 1 1 1 1 1 1 1 1 1 1 1 1 1 1 1 0 0 1 1 1 1 1 2 1 1 1
1 1 1 1 1 2 2 2 2 2 2 2 2 2 2 2 2 1 1 1 1 1 1 1 1 1 1 1 1 1 1 1 1 1 1 1 1 1 1 2 2 1 1
1 1 2 2 3 3 3 3 3 2 2 3 3 3 3 2 2 2 2 2 2 2 2 1 1 1 1 1 1 1 1 1 1 1 1 1 1 1 1 1 1 1 1
2 3 3 5 6 6 5 4 4 3 2 2 2 2 2 2 2 2 2 2 2 2 2 2 1 1 1 1 1 1 1 1 1 1 1 1 1 1 1 1 1 1 1
4 4 5 6 6 6 5 4 4 3 2 2 1 2 2 2 2 2 2 1 1 1 1 1 1 1 1 0 0 1 1 1 1 1 1 1 1 1 1 1 2 1 1
4 4 4 4 4 4 4 4 3 3 2 2 1 2 2 2 2 2 2 2 2 2 2 2 1 1 0 0 0 0 1 1 1 1 1 1 1 1 1 1 2 2 2
3 3 3 3 3 4 4 3 3 3 3 2 2 2 2 2 3 3 2 2 2 2 2 2 1 1 0 0 0 0 1 1 1 1 1 1 1 1 1 1 2 2 2
3 3 3 3 4 4 4 4 3 3 2 2 2 2 3 4 4 4 3 2 2 2 2 1 1 1 0 0 0 0 0 0 0 1 1 1 1 1 2 2 2 2 2
3 3 4 4 5 5 4 4 3 2 2 2 3 3 4 5 6 4 2 1 1 1 1 1 1 1 1 1 1 1 0 0 0 0 0 1 1 1 2 2 2 2 1
4 4 4 5 5 5 4 4 3 3 3 3 3 4 6 7 6 3 2 1 1 1 1 1 1 1 2 2 1 1 1 1 1 0 0 1 1 1 1 2 2 2 2
4 4 4 4 4 4 4 5 5 4 4 4 4 6 7 7 5 3 1 1 1 1 1 1 1 2 2 2 2 2 2 2 1 1 1 1 1 1 1 2 2 2 2
4 5 5 5 5 6 6 6 6 5 5 5 6 8 8 6 4 2 1 1 1 1 1 1 1 1 2 2 2 3 3 3 2 2 1 1 1 1 1 1 2 2 2
6 7 8 8 8 8 8 7 7 6 6 6 7 8 6 4 3 2 1 1 1 1 1 1 1 1 2 2 2 3 3 3 3 2 2 1 1 1 1 1 1 2 2